CEB344 RPLL-RCKH

Flight info

Callsign CEB344
Flight time N/A
Altitude 35000
Route RDVXCAB/06 CAB B462 LAO/N0461F350 M646 POTIB POTIB1A
Aircraft A21N/M-SDE3FGHIRWY/LB1

Departure

Time N/A
Airport Ninoy Aquino International Airport (RPLL)

Arrival

Time 2026-05-06 15:36
Airport Kaohsiung International Airport (RCKH)
Time Latitude Longitude Altitude Speed Heading
2026-05-06 15:11 20.77478 120.73987 32452 ft 443 kts
2026-05-06 15:11 20.80586 120.74242 32185 ft 444 kts
2026-05-06 15:11 20.83657 120.74494 31922 ft 442 kts
2026-05-06 15:12 20.86749 120.74750 31658 ft 441 kts
2026-05-06 15:12 20.89810 120.75002 31391 ft 440 kts
2026-05-06 15:12 20.92858 120.75254 31127 ft 439 kts
2026-05-06 15:12 20.95888 120.75504 30866 ft 437 kts
2026-05-06 15:13 20.98941 120.75758 30602 ft 436 kts
2026-05-06 15:13 21.01981 120.76017 30338 ft 435 kts
2026-05-06 15:13 21.04993 120.76293 30075 ft 433 kts
2026-05-06 15:13 21.08018 120.76573 29811 ft 432 kts
2026-05-06 15:14 21.10984 120.76848 29552 ft 430 kts
2026-05-06 15:14 21.14003 120.77125 29285 ft 429 kts
2026-05-06 15:14 21.16982 120.77399 29022 ft 427 kts
2026-05-06 15:14 21.19955 120.77670 28759 ft 427 kts
2026-05-06 15:15 21.22954 120.77943 28508 ft 425 kts
2026-05-06 15:15 21.25897 120.78213 28259 ft 424 kts
2026-05-06 15:15 21.28852 120.78483 28006 ft 423 kts
2026-05-06 15:15 21.31782 120.78751 27749 ft 422 kts
2026-05-06 15:16 21.34707 120.78813 27471 ft 418 kts 355°
2026-05-06 15:16 21.37568 120.78453 27110 ft 414 kts 347°
2026-05-06 15:16 21.40376 120.77701 26692 ft 410 kts 342°
2026-05-06 15:16 21.43076 120.76833 26254 ft 407 kts 341°
2026-05-06 15:17 21.45800 120.75932 25800 ft 404 kts 341°
2026-05-06 15:17 21.48465 120.75053 25344 ft 401 kts 341°
2026-05-06 15:17 21.51140 120.74175 24888 ft 398 kts 341°
2026-05-06 15:17 21.53771 120.73315 24428 ft 396 kts 341°
2026-05-06 15:18 21.56389 120.72463 23974 ft 393 kts 341°
2026-05-06 15:18 21.59017 120.71606 23509 ft 391 kts 341°
2026-05-06 15:18 21.61629 120.70756 23050 ft 389 kts 341°
2026-05-06 15:18 21.64193 120.69922 22598 ft 387 kts 341°
2026-05-06 15:19 21.66780 120.69080 22141 ft 386 kts 341°
2026-05-06 15:19 21.69347 120.68243 21685 ft 384 kts 341°
2026-05-06 15:19 21.71897 120.67413 21226 ft 383 kts 341°
2026-05-06 15:19 21.74448 120.66583 20778 ft 381 kts 341°
2026-05-06 15:20 21.77001 120.65751 20326 ft 379 kts 341°
2026-05-06 15:20 21.79533 120.64925 19889 ft 377 kts 341°
2026-05-06 15:20 21.82035 120.64109 19454 ft 375 kts 341°
2026-05-06 15:20 21.84520 120.63300 19019 ft 373 kts 342°
2026-05-06 15:21 21.87011 120.62487 18586 ft 371 kts 341°
2026-05-06 15:21 21.89432 120.61494 18143 ft 368 kts 332°
2026-05-06 15:21 21.91610 120.60082 17714 ft 364 kts 322°
2026-05-06 15:21 21.93558 120.58394 17293 ft 361 kts 319°
2026-05-06 15:22 21.95463 120.56638 16872 ft 359 kts 318°
2026-05-06 15:22 21.97374 120.54868 16441 ft 357 kts 318°
2026-05-06 15:22 21.99247 120.53140 16011 ft 356 kts 318°
2026-05-06 15:22 22.01134 120.51407 15577 ft 354 kts 318°
2026-05-06 15:23 22.03016 120.49686 15129 ft 353 kts 318°
2026-05-06 15:23 22.04888 120.47976 14690 ft 351 kts 318°
2026-05-06 15:23 22.06761 120.46263 14250 ft 349 kts 318°
2026-05-06 15:23 22.08603 120.44569 13810 ft 348 kts 318°
2026-05-06 15:24 22.10468 120.42853 13369 ft 346 kts 318°
2026-05-06 15:24 22.12309 120.41156 12940 ft 344 kts 318°
2026-05-06 15:24 22.14088 120.39514 12523 ft 341 kts 317°
2026-05-06 15:24 22.15918 120.37824 12097 ft 338 kts 318°
2026-05-06 15:25 22.17721 120.36158 11683 ft 336 kts 318°
2026-05-06 15:25 22.19483 120.34531 11265 ft 334 kts 317°
2026-05-06 15:25 22.21244 120.32905 10831 ft 332 kts 317°
2026-05-06 15:25 22.22983 120.31296 10496 ft 324 kts 317°
2026-05-06 15:26 22.24655 120.29718 10108 ft 311 kts 317°
2026-05-06 15:26 22.26248 120.28206 9965 ft 297 kts 317°
2026-05-06 15:26 22.27770 120.26757 9889 ft 293 kts 317°
2026-05-06 15:26 22.29316 120.25286 9575 ft 291 kts 317°
2026-05-06 15:27 22.30847 120.23829 9245 ft 289 kts 317°
2026-05-06 15:27 22.32361 120.22390 8906 ft 288 kts 317°
2026-05-06 15:27 22.33864 120.20961 8584 ft 286 kts 317°
2026-05-06 15:27 22.35365 120.19534 8260 ft 285 kts 317°
2026-05-06 15:28 22.36845 120.18128 7965 ft 284 kts 317°
2026-05-06 15:28 22.38319 120.16728 7682 ft 283 kts 317°
2026-05-06 15:28 22.39790 120.15331 7380 ft 281 kts 317°
2026-05-06 15:28 22.41272 120.13922 6929 ft 283 kts 317°
2026-05-06 15:29 22.42755 120.12510 6448 ft 286 kts 318°
2026-05-06 15:29 22.44227 120.11109 6182 ft 281 kts 318°
2026-05-06 15:29 22.45689 120.09724 5883 ft 275 kts 320°
2026-05-06 15:29 22.47337 120.08742 5461 ft 267 kts 348°
2026-05-06 15:30 22.49170 120.08672 5099 ft 263 kts
2026-05-06 15:30 22.50982 120.08807 4746 ft 261 kts
2026-05-06 15:30 22.52789 120.08933 4346 ft 259 kts
2026-05-06 15:30 22.54580 120.09043 3824 ft 256 kts
2026-05-06 15:31 22.56322 120.09253 3370 ft 247 kts 21°
2026-05-06 15:31 22.57690 120.10225 3171 ft 226 kts 53°
2026-05-06 15:31 22.58311 120.11734 3044 ft 221 kts 81°
2026-05-06 15:32 22.58368 120.14855 2992 ft 189 kts 92°
2026-05-06 15:32 22.58310 120.16199 2954 ft 173 kts 92°
2026-05-06 15:32 22.58257 120.17501 2810 ft 172 kts 92°
2026-05-06 15:32 22.58213 120.18759 2568 ft 161 kts 92°
2026-05-06 15:33 22.58174 120.19955 2408 ft 155 kts 91°
2026-05-06 15:33 22.58138 120.21104 2207 ft 153 kts 91°
2026-05-06 15:33 22.58102 120.22266 2014 ft 152 kts 91°
2026-05-06 15:33 22.58067 120.23404 1821 ft 151 kts 91°
2026-05-06 15:34 22.58032 120.24535 1627 ft 151 kts 91°
2026-05-06 15:34 22.57997 120.25674 1430 ft 151 kts 91°
2026-05-06 15:34 22.57961 120.26816 1233 ft 150 kts 91°
2026-05-06 15:34 22.57926 120.27954 1039 ft 150 kts 91°
2026-05-06 15:35 22.57891 120.29084 844 ft 150 kts 91°
2026-05-06 15:35 22.57857 120.30212 653 ft 151 kts 91°
2026-05-06 15:35 22.57850 120.30428 613 ft 151 kts 91°
2026-05-06 15:35 22.57805 120.31845 384 ft 152 kts 91°
2026-05-06 15:36 22.57771 120.32986 185 ft 152 kts 91°
2026-05-06 15:36 22.57735 120.34127 44 ft 150 kts 91°
2026-05-06 15:36 22.57704 120.35119 39 ft 106 kts 92°
2026-05-06 15:36 22.57687 120.35716 39 ft 43 kts 90°
2026-05-06 15:37 22.57681 120.35885 39 ft 8 kts 95°
2026-05-06 15:37 22.57666 120.35915 39 ft 4 kts 146°
2026-05-06 15:37 22.57626 120.35921 39 ft 7 kts 182°
2026-05-06 15:37 22.57569 120.35918 39 ft 8 kts 182°
2026-05-06 15:38 22.57520 120.35911 39 ft 5 kts 209°
2026-05-06 15:38 22.57510 120.35867 39 ft 6 kts 272°
2026-05-06 15:38 22.57514 120.35815 39 ft 7 kts 273°
2026-05-06 15:38 22.57517 120.35757 39 ft 7 kts 272°
2026-05-06 15:39 22.57518 120.35713 39 ft 8 kts 271°
2026-05-06 15:39 22.57520 120.35648 39 ft 9 kts 273°
2026-05-06 15:39 22.57523 120.35578 39 ft 9 kts 272°
2026-05-06 15:39 22.57525 120.35503 39 ft 10 kts 271°
2026-05-06 15:40 22.57528 120.35427 39 ft 10 kts 272°
2026-05-06 15:40 22.57530 120.35347 39 ft 12 kts 270°
2026-05-06 15:40 22.57533 120.35242 39 ft 13 kts 272°
2026-05-06 15:40 22.57537 120.35145 39 ft 12 kts 272°
2026-05-06 15:41 22.57540 120.35053 39 ft 12 kts 272°
2026-05-06 15:41 22.57543 120.34956 39 ft 15 kts 272°
2026-05-06 15:41 22.57545 120.34846 39 ft 14 kts 271°
2026-05-06 15:41 22.57550 120.34714 39 ft 18 kts 272°
2026-05-06 15:42 22.57554 120.34576 39 ft 17 kts 271°
2026-05-06 15:42 22.57558 120.34451 39 ft 16 kts 272°
2026-05-06 15:42 22.57562 120.34336 39 ft 14 kts 271°
2026-05-06 15:42 22.57565 120.34228 39 ft 13 kts 271°
2026-05-06 15:43 22.57558 120.34143 39 ft 9 kts 231°
2026-05-06 15:43 22.57497 120.34126 39 ft 9 kts 180°
2026-05-06 15:43 22.57435 120.34125 39 ft 8 kts 188°
2026-05-06 15:43 22.57412 120.34101 39 ft 1 kts 266°
2026-05-06 15:44 22.57395 120.34058 39 ft 11 kts 218°
2026-05-06 15:44 22.57346 120.34061 39 ft 3 kts 155°
2026-05-06 15:44 22.57327 120.34086 39 ft 6 kts 109°
2026-05-06 15:44 22.57324 120.34123 39 ft 6 kts 93°
2026-05-06 15:45 22.57323 120.34132 39 ft 0 kts 93°